Flag for Cambodia Weather past 2 weeks in Sihanoukville, Cambodia

Now
84 °F

Partly sunny.


Feels Like: 94 °F
Forecast: 78 / 82 °F
Wind: 7 mph from West

Location: Siemreap

Current Time: Jul 23, 2014 at 2:28:12 PM

Latest Report: Jul 23, 2014 at 1:00 PM


Visibility: 6 mi

Pressure: 29.68 "Hg

Humidity: 79%

Dew point: 77 °F

Location of SihanoukvilleLocation

Historic Weather in Sihanoukville — Graph

°F

Sihanoukville temperature yesterday

Maximum temperature yesterday: 90 °F (at 1:00 PM)
Minimum temperature yesterday: 77 °F (at 12:00 AM)
Average temperature yesterday: 82 °F

Past Weeks' High & Low Weather Summary

 TemperatureHumidityPressure
High97 °F (Jul 21, 6:30 PM)100% (Jul 19, 8:30 PM)29.80 "Hg (Jul 19, 8:30 PM)
Low75 °F (Jul 18, 6:00 PM)15% (Jul 22, 1:00 PM)29.53 "Hg (Jul 8, 4:00 PM)
Average82 °F80%29.69 "Hg
* Reported Jul 8 12:00 Noon — Jul 23 12:30 PM, Sihanoukville, Weather by CustomWeather, © 2014

Note: Actual official high and low records may vary slightly from our data, if they occured in-between our weather recording intervals... More about our weather records

Advertising

Sihanoukville weather history for previous 24 hours

 ConditionsComfort  
Time TempWeatherWind HumidityBarometerVisibility
12:30 PM
Jul 23
81 °FPartly sunny.9 mph84%29.68 "Hg6 mi
11:30 AM82 °FPartly sunny.8 mph84%29.71 "Hg6 mi
11:00 AM82 °FPartly sunny.7 mph84%29.71 "Hg6 mi
10:30 AM82 °FPartly sunny.7 mph84%29.71 "Hg5 mi
10:00 AM81 °FPartly sunny.5 mph89%29.74 "Hg5 mi
9:30 AM81 °FBroken clouds.3 mph84%29.74 "Hg5 mi
9:00 AM79 °FMostly cloudy.2 mph94%29.71 "Hg5 mi
8:30 AM79 °FLight rain. Mostly cloudy.3 mph89%29.71 "Hg4 mi
7:30 AM77 °FLight rain. Mostly cloudy.1 mph94%29.71 "Hg4 mi
11:30 PM
Jul 22
77 °FLight rain. Partly cloudy.9 mph94%29.71 "Hg4 mi
11:00 PM77 °FLight rain. Partly cloudy.6 mph94%29.74 "Hg4 mi
10:30 PM77 °FLight rain. Partly cloudy.6 mph94%29.74 "Hg4 mi
10:00 PM77 °FLight rain. Partly cloudy.7 mph94%29.74 "Hg4 mi
9:30 PM77 °FLight rain. Partly cloudy.12 mph94%29.74 "Hg4 mi
9:00 PM77 °FLight rain. Partly cloudy.12 mph94%29.71 "Hg4 mi
8:30 PM79 °FLight rain. Partly cloudy.10 mph89%29.68 "Hg4 mi
8:00 PM79 °FLight rain. Partly cloudy.9 mph89%29.68 "Hg4 mi
7:30 PM79 °FLight rain. Partly cloudy.8 mph89%29.65 "Hg4 mi
7:00 PM79 °FPartly cloudy.9 mph89%29.65 "Hg6 mi
6:30 PM79 °FBroken clouds.9 mph79%29.65 "Hg6 mi
6:00 PM81 °FBroken clouds.10 mph74%29.62 "Hg6 mi
5:30 PM81 °FBroken clouds.9 mph79%29.59 "Hg6 mi
5:00 PM81 °FScattered clouds.18 mph74%29.59 "Hg6 mi
4:30 PM88 °FScattered clouds.12 mph66%29.59 "Hg6 mi
3:30 PM88 °FScattered clouds.10 mph70%29.59 "Hg6 mi
3:00 PM88 °FScattered clouds.9 mph70%29.59 "Hg6 mi
2:30 PM88 °FBroken clouds.10 mph66%29.62 "Hg6 mi
2:00 PM88 °FBroken clouds.10 mph66%29.62 "Hg6 mi
Weather by CustomWeather, © 2014

See weather overviewHow to use our weather pages